Wichita, KS

11:54 PM CST on January 20, 2017 (GMT -0600)
Wichita Mid-Continent Airport

Weather History for KICT - April, 2013

Change the Weather History Date:

Friday, April 19, 2013

  Actual Average Record
Temperature  
Mean Temperature 48 °F 57 °F  
Max Temperature 65 °F 69 °F 91 °F (1987)
Min Temperature 31 °F 46 °F 31 °F (2013)
Degree Days  
Heating Degree Days 17 9  
Month to date heating degree days 302 215  
Since 1 July heating degree days 4239 4432  
Cooling Degree Days 0 1  
Month to date cooling degree days 3 12  
Year to date cooling degree days 3 14  
Moisture  
Dew Point 27 °F    
Average Humidity 53    
Maximum Humidity 78    
Minimum Humidity 27    
Precipitation  
Precipitation 0.00 in 0.09 in 1.82 in (2003)
Month to date precipitation 1.96 1.48  
Year to date precipitation 7.09 6.18  
Snow  
Snow 0.00 in 0.00 in T in (1955)
Month to date snowfall T 0.2  
Since 1 July snowfall 29.8 14.9  
Snow Depth 0.00 in    
Sea Level Pressure  
Sea Level Pressure 30.08 in    
Wind  
Wind Speed 13 mph (NW)    
Max Wind Speed 28 mph    
Max Gust Speed 39 mph    
Visibility 10 miles    
Events      
T = Trace of Precipitation, MM = Missing Value Source: NWS Daily Summary

Daily Weather History Graph

Daily Weather History Graph

Search for Another Location

Airport or City:

Trip Planner

Search our weather history database for the weather conditions in past years. The results will help you decide how hot, cold, wet, or windy it might be!

Date:

Astronomy

Apr. 19, 2013 Rise Set
Actual Time 6:48 AM CDT 8:09 PM CDT
Civil Twilight 6:21 AM CDT 8:36 PM CDT
Nautical Twilight 5:48 AM CDT 9:09 PM CDT
Astronomical Twilight 5:14 AM CDT 9:43 PM CDT
Moon 2:01 PM CDT (4/19) 2:57 AM CDT (4/19)
Length of Visible Light 14h 15m
Length of Day
13h 20m
First Quarter, 62% of the Moon is Illuminated
Apr 19
First Quarter
Apr 25
Full
May 2
Last Quarter
May 9
New
May 17
First Quarter

Hourly Weather History & Observations

Time (CDT) Temp. Windchill Dew Point Humidity Pressure Visibility Wind Dir Wind Speed Gust Speed Precip Events Conditions
12:53 AM 33.1 °F 23.9 °F 24.1 °F 70% 30.10 in 10.0 mi WNW 12.7 mph - N/A   Clear
1:53 AM 32.0 °F 21.6 °F 25.0 °F 75% 30.10 in 10.0 mi WNW 15.0 mph - N/A   Clear
2:53 AM 32.0 °F 22.1 °F 24.1 °F 73% 30.09 in 10.0 mi WNW 13.8 mph - N/A   Partly Cloudy
3:53 AM 32.0 °F 21.6 °F 24.1 °F 73% 30.09 in 10.0 mi WNW 15.0 mph 23.0 mph N/A   Scattered Clouds
4:53 AM 32.0 °F 22.5 °F 24.1 °F 73% 30.09 in 10.0 mi WNW 12.7 mph - N/A   Partly Cloudy
5:53 AM 30.9 °F 20.2 °F 23.0 °F 72% 30.10 in 10.0 mi WNW 15.0 mph - N/A   Clear
6:53 AM 30.9 °F 21.2 °F 24.1 °F 76% 30.12 in 10.0 mi West 12.7 mph - N/A   Partly Cloudy
7:53 AM 33.1 °F 23.9 °F 24.1 °F 70% 30.14 in 10.0 mi West 12.7 mph - N/A   Clear
8:53 AM 37.9 °F 28.9 °F 25.0 °F 60% 30.13 in 10.0 mi WNW 16.1 mph - N/A   Clear
9:53 AM 43.0 °F 35.1 °F 25.0 °F 49% 30.13 in 10.0 mi WNW 17.3 mph 23.0 mph N/A   Clear
10:53 AM 48.0 °F - 25.0 °F 41% 30.13 in 10.0 mi West 16.1 mph - N/A   Clear
11:53 AM 50.0 °F - 23.0 °F 35% 30.10 in 10.0 mi WNW 12.7 mph 16.1 mph N/A   Clear
12:53 PM 54.0 °F - 26.1 °F 34% 30.08 in 10.0 mi West 11.5 mph 23.0 mph N/A   Clear
1:53 PM 57.9 °F - 28.0 °F 32% 30.05 in 10.0 mi West 16.1 mph 21.9 mph N/A   Scattered Clouds
2:53 PM 61.0 °F - 28.9 °F 30% 30.02 in 10.0 mi West 16.1 mph 24.2 mph N/A   Partly Cloudy
3:53 PM 64.0 °F - 30.0 °F 28% 30.01 in 10.0 mi WNW 20.7 mph 33.4 mph N/A   Scattered Clouds
4:53 PM 63.0 °F - 28.9 °F 28% 30.01 in 10.0 mi NW 18.4 mph 32.2 mph N/A   Partly Cloudy
5:53 PM 63.0 °F - 30.0 °F 29% 30.02 in 10.0 mi North 16.1 mph 23.0 mph N/A   Partly Cloudy
6:53 PM 59.0 °F - 32.0 °F 36% 30.03 in 10.0 mi North 10.4 mph - N/A   Partly Cloudy
7:53 PM 55.9 °F - 32.0 °F 40% 30.04 in 10.0 mi NNE 8.1 mph - N/A   Partly Cloudy
8:53 PM 50.0 °F - 32.0 °F 50% 30.06 in 10.0 mi ENE 5.8 mph - N/A   Partly Cloudy
9:53 PM 50.0 °F - 32.0 °F 50% 30.07 in 10.0 mi East 5.8 mph - N/A   Partly Cloudy
10:53 PM 46.9 °F - 32.0 °F 56% 30.07 in 10.0 mi East 5.8 mph - N/A   Clear
11:53 PM 46.0 °F 43.9 °F 30.9 °F 56% 30.08 in 10.0 mi East 4.6 mph - N/A   Clear